カタログに戻る

STARLINK-32008

運用中通信VLEO
NORAD 60028·PAYLOAD·🇺🇸 United States

打ち上げ Jun 8, 2024 から Cape Canaveral Space Force Station

Loading…

次のパス (今後24時間)

TLE

最新Source: CelesTrak SupGP

元期: Sep 15, 2026, 03:05 UTC

1 60028C 24111N   26258.12895833 -.00011427  00000+0 -33767-3 0  2580
2 60028  53.1581 274.9228 0001255  93.1529  78.0353 15.34390462    11

AllMySatでSTARLINK-32008をリアルタイム追跡

Download on the App Store